Regional Weather Roundup
Issued by NWS

Home | Current Version | Previous Version | Graphics & Text | Print | Product List | Glossary On
Versions: 1 2 3 4 5 6 7 8 9 10 11 12 13 14 15 16 17 18 19 20 21 22 23 24 25 26 27
000
ASUS45 KPSR 091510
RWRAZ

ARIZONA HOURLY REGIONAL WEATHER ROUNDUP
NATIONAL WEATHER SERVICE PHOENIX AZ
800 AM MST FRI DEC 09 2016

NOTE: FAIR INDICATES FEW OR NO CLOUDS BELOW 12,000 FEET WITH NO
SIGNIFICANT WEATHER AND/OR OBSTRUCTIONS TO VISIBILITY.

AZZ001>003-036-091600-
NORTHWEST ARIZONA

CITY           SKY/WX    TMP DP  RH WIND       PRES   REMARKS
BULLHEAD CITY  CLOUDY    55  19  24 N15       30.27R
KINGMAN        CLOUDY    45  21  38 NE5       30.27F
$$

AZZ004>008-015-016-018-091600-
NORTH CENTRAL ARIZONA

CITY           SKY/WX    TMP DP  RH WIND       PRES   REMARKS
GRAND CANYON   CLOUDY    32  29  88 CALM      30.33R
WILLIAMS       PTCLDY    27  25  93 S7        30.33S WCI  19
PRESCOTT       PTCLDY    31  29  92 SW3       30.32R
FLAGSTAFF      MOCLDY    26  24  92 CALM      30.33R
PAYSON         MOCLDY    37  32  81 CALM      30.34S
PAGE           MOCLDY    31  13  47 SW3       30.33R
$$

AZZ009>014-017-091600-
NORTHEAST ARIZONA

CITY           SKY/WX    TMP DP  RH WIND       PRES   REMARKS
WINSLOW        MOCLDY    27  22  81 SE3       30.34R
SAINT JOHNS    PTCLDY    25  21  85 CALM      30.33R
WINDOW ROCK    CLEAR     20  15  81 CALM      30.35R
SHOW LOW       PTCLDY    36  25  64 S8        30.33R WCI  29
$$

AZZ023-091600-
GREATER PHOENIX AREA

CITY           SKY/WX    TMP DP  RH WIND       PRES   REMARKS
PHOENIX        PTCLDY    49  39  68 E5        30.23S
BUCKEYE        CLEAR     41  39  93 N3        30.26R
GLENDALE       PTCLDY    46  39  76 NW6       30.26R
LUKE AFB       CLEAR     45  37  72 N3        30.24R
DEER VALLEY    CLEAR     47  38  71 N7        30.24R
SCOTTSDALE     CLEAR     48  38  68 CALM      30.25R
MESA-GATEWAY   CLEAR     41  34  75 SE6       30.25S
CHANDLER       PTCLDY    43  37  81 E5        30.25S
$$

AZZ027-028-091600-
SOUTHWEST MARICOPA COUNTY AND PINAL COUNTY

CITY           SKY/WX    TMP DP  RH WIND       PRES   REMARKS
CASA GRANDE    NOT AVBL
GILA BEND      CLEAR     44  33  66 E6        30.23S
$$

AZZ503-504-507>509-091600-
SOUTHEAST ARIZONA

CITY           SKY/WX    TMP DP  RH WIND       PRES   REMARKS
TUCSON         CLEAR     44  32  62 S9        30.27R
DAVIS-MONTHAN  CLEAR     48  34  58 NW3       30.26R
RYAN FIELD     CLEAR     37  32  81 E6        30.27R WCI  33
NOGALES        CLEAR     38  29  70 CALM      30.26R
SIERRA VISTA   PTCLDY    38  30  73 CALM      30.30R
DOUGLAS        PTCLDY    32  30  92 W5        30.31S WCI  27
SAFFORD        CLEAR     39  29  67 SE12      30.35S WCI  32
$$

AZZ020-021-025-026-031-091600-
SOUTHWEST ARIZONA

CITY           SKY/WX    TMP DP  RH WIND       PRES   REMARKS
YUMA           PTCLDY    51  19  28 N10       30.23R
$$

CAZ031-033-041-043-047-048-061-091600-
SOUTHERN CALIFORNIA

CITY           SKY/WX    TMP DP  RH WIND       PRES   REMARKS
DOWNTOWN L.A.  PTCLDY    51  48  89 CALM      30.24S
L.A. AIRPORT   MOCLDY    53  49  86 CALM      30.25S
SAN DIEGO      MOCLDY    52  47  83 NE3       30.27R
BURBANK        PTCLDY    49  42  77 CALM      30.24S
ONTARIO        MOCLDY    48  42  80 CALM      30.25R
RIVERSIDE      MOCLDY    45  42  89 E3        30.25S
PALM SPRINGS   PTCLDY    50  37  61 NW6       30.25R
EL CENTRO NAS  MOCLDY    44  22  41 W7        30.25R
IMPERIAL       CLEAR     44  27  51 W6        30.23S
BLYTHE         CLOUDY    47  12  24 SW6       30.25R
NEEDLES        CLOUDY    52  16  24 W5        30.27S
$$

NVZ020-UTZ003-091600-
SOUTHERN NEVADA-UTAH

CITY           SKY/WX    TMP DP  RH WIND       PRES   REMARKS
LAS VEGAS      CLOUDY    48  10  21 CALM      30.29R
SALT LAKE CITY CLOUDY    37  31  78 SE8       30.19S WCI  31
$$

NMZ009-TXZ055-091600-
NEW MEXICO-WEST TEXAS

CITY           SKY/WX    TMP DP  RH WIND       PRES   REMARKS
ALBUQUERQUE    CLOUDY    25  20  81 SE5       30.38S WCI  19
EL PASO        CLOUDY    34  27  75 NE6       30.42R WCI  29
$$


........................KEY........................
SKY/WX - SKY CONDITION/WEATHER
TMP    - TEMPERATURE IN FAHRENHEIT
DP     - DEW POINT IN FAHRENHEIT
RH     - RELATIVE HUMIDITY IN PERCENT
WIND   - DIRECTION AND SPEED IN MILES PER HOUR (MPH)
VRB    - VARIABLE WIND DIRECTION
PRES   - MEAN SEA LEVEL PRESSURE IN INCHES OF MERCURY
         F - FALLING PRESSURE   R - RISING PRESSURE
         S - STEADY PRESSURE
VSB    - VISIBILITY IN MILES
HX     - HEAT INDEX IN FAHRENHEIT
WCI    - WIND CHILL INDEX IN FAHRENHEIT
TC     - TEMPERATURE IN CELSIUS WHICH IS ALSO KNOWN AS
         TEMPERATURE IN CENTIGRADE
AFB    - AIR FORCE BASE
         LUKE AFB IS LUKE AIR FORCE BASE
         DAVIS-MONTHAN IS DAVIS-MONTHAN AIR FORCE BASE
NAS    - NAVAL AIR STATION
         EL CENTRO NAS IS EL CENTRO NAVAL AIR STATION
N/A    - NOT AVAILABLE





USA.gov is the U.S. government's official web portal to all federal, state and local government web resources and services.